Regional Weather Roundup
Issued by NWS Sioux Falls, SD

Home | Current Version | Previous Version | Text Only | Print | Product List | Glossary Off
Versions: 1 2 3 4 5 6 7 8 9 10 11 12 13 14 15 16 17 18 19 20 21 22 23 24 25 26 27 28 29 30 31 32 33 34 35 36 37 38 39 40 41 42 43 44 45 46 47 48 49 50

000
ASUS43 KFSD 271002
RWRFSD

WEATHER ROUNDUP FOR SE SOUTH DAKOTA/SW MINNESOTA/NW IOWA
NATIONAL WEATHER SERVICE SIOUX FALLS SD
500 AM CDT THU APR 27 2017

NOTE: "FAIR" INDICATES FEW OR NO CLOUDS BELOW 12,000 FEET WITH NO
SIGNIFICANT WEATHER AND OR OBSTRUCTIONS TO VISIBILITY.


SDZ038>040-050-052>070-271100-
SOUTHEAST SOUTH DAKOTA

CITY           SKY/WX    TMP DP  RH WIND       PRES   REMARKS
BROOKINGS      CLOUDY    28  25  88 NW14      29.62F WCI  17
CHAMBERLAIN    CLOUDY    33  30  90 W7        29.71R WCI  27
HURON          CLOUDY    30  24  78 N10       29.70S WCI  21
MADISON        CLOUDY    27  27 100 NW18      29.63S WCI  13
MITCHELL       CLOUDY    32  25  75 NW14      29.70S WCI  22
SIOUX FALLS    CLOUDY    31  26  82 NW18      29.64R WCI  19
WINNER         FAIR      25  22  88 CALM      29.70S
YANKTON        CLOUDY    32  27  80 NW10      29.66F WCI  24
$$

MNZ071-072-080-081-089-090-097-098-271100-
SOUTHWEST MINNESOTA

CITY           SKY/WX    TMP DP  RH WIND       PRES   REMARKS
FAIRMONT       CLOUDY    31  29  92 NW16      29.58S WCI  20
JACKSON        CLOUDY    30  28  93 NW17      29.59S FOG     WCI  18
LUVERNE        CLOUDY    30  25  80 N15G21    29.63R WCI  19
MARSHALL       CLOUDY    29  27  92 NW16      29.61S WCI  17
MONTEVIDEO     CLOUDY    28  28 100 N14G21    29.61S WCI  17
PIPESTONE      CLOUDY    28  21  74 N16       29.60S WCI  17
REDWOOD FALLS  CLOUDY    31  28  89 NW10      29.59S WCI  22
TRACY          CLOUDY    30  29  96 NW17      29.61S WCI  18
WINDOM         CLOUDY    30  28  93 NW16      29.58F WCI  19
WORTHINGTON    CLOUDY    28  26  92 NW16      29.61R WCI  16
$$

IAZ001>003-012>014-020>022-031-032-NEZ013-014-SDZ071-271100-
NORTHWEST IOWA

CITY           SKY/WX    TMP DP  RH WIND       PRES   REMARKS
CHEROKEE       CLOUDY    32  29  89 NW10G17   29.62S WCI  24
DENISON        CLOUDY    34  28  80 NW16      29.65R WCI  23
ESTHERVILLE    CLOUDY    30  28  92 NW15      29.58F WCI  19
LE MARS        CLOUDY    32  28  86 NW10      29.65S WCI  24
ORANGE CITY    CLOUDY    30  28  93 NW10      29.62S WCI  21
SHELDON        CLOUDY    30  27  86 NW20      29.60S WCI  18
SIOUX CITY     CLOUDY    33  29  85 NW13      29.65R WCI  24
SPENCER        CLOUDY    30  29  96 NW13      29.60S FOG     WCI  20
STORM LAKE     CLOUDY    32  28  86 NW16      29.61R WCI  21
$$

ABBREVIATIONS USED IN REMARKS
   TC - TEMPERATURE IN CELSIUS
  WCI - WIND CHILL INDEX
   HX - HEAT INDEX
  VSB - VISIBILITY





USA.gov is the U.S. government's official web portal to all federal, state and local government web resources and services.